WAT5591 FACT-KIAD

Flight info

Callsign WAT5591
Flight time N/A
Altitude 28000
Route IMSOM1A IMSOM UQ34 UVIKU DCT ALDOV DCT 25S010E/N0505F300 20S006E 18S005E 11S000E DCT ONANA DCT 06S005W 02S010W/N0505F320 02N015W 06N020W DCT PISKA DCT GROBA/N0497F340 DCT MOSOK DCT APOXA DCT NATAS/M083F340 DCT XIBOT DCT 24N040W 33N050W/M083F360 40N060W DCT DOVEY/N0469F380 DCT ACK Q430 RBV HYPER9
Aircraft B77L/H-SDE1E2E3FGHIJ2J3J4J5M1RWXY/LB1D1

Departure

Time N/A
Airport Cape Town International Airport (FACT)

Arrival

Time 2026-05-05 21:31
Airport Washington Dulles International Airport (KIAD)
Time Latitude Longitude Altitude Speed Heading
2026-05-05 17:33 30.79144 -47.29703 34479 ft 465 kts 311°
2026-05-05 17:33 30.81383 -47.32346 34865 ft 463 kts 311°
2026-05-05 17:34 30.83633 -47.35004 35291 ft 460 kts 311°
2026-05-05 17:34 30.85872 -47.37650 35709 ft 457 kts 311°
2026-05-05 17:34 30.87373 -47.39426 35965 ft 455 kts 311°
2026-05-05 17:34 30.89562 -47.42016 36300 ft 454 kts 311°
2026-05-05 17:35 30.91786 -47.44652 36262 ft 458 kts 311°
2026-05-05 17:35 30.96239 -47.49933 36277 ft 454 kts 311°
2026-05-05 17:36 31.00649 -47.55167 36279 ft 451 kts 311°
2026-05-05 17:36 31.05030 -47.60375 36282 ft 449 kts 311°
2026-05-05 17:37 31.09408 -47.65589 36279 ft 449 kts 311°
2026-05-05 17:37 31.13752 -47.70769 36279 ft 449 kts 311°
2026-05-05 17:38 31.18128 -47.75994 36276 ft 450 kts 311°
2026-05-05 17:38 31.22510 -47.81233 36284 ft 451 kts 311°
2026-05-05 17:39 31.26900 -47.86490 36280 ft 452 kts 311°
2026-05-05 17:39 31.31303 -47.91769 36276 ft 453 kts 311°
2026-05-05 17:40 31.35709 -47.97059 36285 ft 454 kts 310°
2026-05-05 17:40 31.40115 -48.02356 36284 ft 454 kts 310°
2026-05-05 17:41 31.44462 -48.07590 36283 ft 454 kts 310°
2026-05-05 17:41 31.48887 -48.12925 36267 ft 452 kts 310°
2026-05-05 17:42 31.53259 -48.18204 36263 ft 450 kts 310°
2026-05-05 17:42 31.57610 -48.23466 36284 ft 449 kts 310°
2026-05-05 17:43 31.61955 -48.28729 36274 ft 449 kts 310°
2026-05-05 17:43 31.66299 -48.33998 36269 ft 449 kts 310°
2026-05-05 17:44 31.70650 -48.39282 36261 ft 450 kts 310°
2026-05-05 17:44 31.75001 -48.44575 36284 ft 451 kts 309°
2026-05-05 17:45 31.79354 -48.49878 36275 ft 451 kts 309°
2026-05-05 17:45 31.83684 -48.55159 36269 ft 451 kts 309°
2026-05-05 17:46 31.88043 -48.60483 36267 ft 452 kts 309°
2026-05-05 17:46 31.92399 -48.65811 36286 ft 451 kts 309°
2026-05-05 17:47 31.96755 -48.71149 36278 ft 452 kts 309°
2026-05-05 17:47 32.01104 -48.76485 36268 ft 451 kts 309°
2026-05-05 17:48 32.05451 -48.81825 36271 ft 451 kts 309°
2026-05-05 17:48 32.09787 -48.87161 36273 ft 451 kts 309°
2026-05-05 17:49 32.14121 -48.92502 36282 ft 450 kts 309°
2026-05-05 17:49 32.18452 -48.97846 36276 ft 450 kts 309°
2026-05-05 17:50 32.22750 -49.03158 36268 ft 450 kts 309°
2026-05-05 17:50 32.27069 -49.08505 36286 ft 449 kts 309°
2026-05-05 17:51 32.31381 -49.13850 36271 ft 449 kts 309°
2026-05-05 17:51 32.35692 -49.19202 36272 ft 449 kts 309°
2026-05-05 17:52 32.39998 -49.24555 36272 ft 449 kts 309°
2026-05-05 17:52 32.44311 -49.29925 36269 ft 449 kts 309°
2026-05-05 17:53 32.48610 -49.35285 36274 ft 449 kts 308°
2026-05-05 17:53 32.52910 -49.40657 36275 ft 449 kts 308°
2026-05-05 17:54 32.57179 -49.45994 36275 ft 449 kts 308°
2026-05-05 17:54 32.61471 -49.51370 36250 ft 448 kts 308°
2026-05-05 17:55 32.65749 -49.56737 36257 ft 446 kts 308°
2026-05-05 17:55 32.70007 -49.62085 36279 ft 445 kts 308°
2026-05-05 17:56 32.74255 -49.67430 36261 ft 444 kts 307°
2026-05-05 17:56 32.78502 -49.72783 36259 ft 444 kts 307°
2026-05-05 17:57 32.82735 -49.78125 36262 ft 444 kts 307°
2026-05-05 17:57 32.86946 -49.83447 36267 ft 444 kts 307°
2026-05-05 17:58 32.91175 -49.88800 36267 ft 444 kts 307°
2026-05-05 17:58 32.95412 -49.94172 36279 ft 445 kts 307°
2026-05-05 17:59 32.99648 -49.99548 36274 ft 445 kts 307°
2026-05-05 17:59 33.03922 -50.04896 36264 ft 446 kts 308°
2026-05-05 18:00 33.08235 -50.10221 36263 ft 446 kts 308°
2026-05-05 18:00 33.12511 -50.15510 36265 ft 446 kts 307°
2026-05-05 18:01 33.16813 -50.20852 36280 ft 446 kts 307°
2026-05-05 18:01 33.21106 -50.26197 36264 ft 446 kts 307°
2026-05-05 18:02 33.25399 -50.31552 36269 ft 446 kts 307°
2026-05-05 18:02 33.29685 -50.36907 36259 ft 445 kts 307°
2026-05-05 18:03 33.33941 -50.42232 36285 ft 445 kts 307°
2026-05-05 18:03 33.38224 -50.47598 36265 ft 446 kts 307°
2026-05-05 18:04 33.42505 -50.52971 36262 ft 446 kts 307°
2026-05-05 18:04 33.46787 -50.58353 36261 ft 446 kts 307°
2026-05-05 18:05 33.51067 -50.63739 36257 ft 446 kts 307°
2026-05-05 18:05 33.55340 -50.69126 36264 ft 446 kts 307°
2026-05-05 18:06 33.59611 -50.74518 36256 ft 446 kts 307°
2026-05-05 18:06 33.63881 -50.79918 36259 ft 446 kts 307°
2026-05-05 18:07 33.68148 -50.85322 36254 ft 446 kts 307°
2026-05-05 18:07 33.72390 -50.90703 36263 ft 446 kts 307°
2026-05-05 18:08 33.76661 -50.96129 36250 ft 446 kts 307°
2026-05-05 18:08 33.80920 -51.01547 36251 ft 446 kts 307°
2026-05-05 18:09 33.85175 -51.06970 36259 ft 445 kts 307°
2026-05-05 18:09 33.89399 -51.12361 36255 ft 445 kts 306°
2026-05-05 18:10 33.93650 -51.17795 36248 ft 445 kts 306°
2026-05-05 18:10 33.97900 -51.23236 36248 ft 445 kts 306°
2026-05-05 18:11 34.02139 -51.28672 36250 ft 445 kts 306°
2026-05-05 18:11 34.06377 -51.34115 36282 ft 446 kts 306°
2026-05-05 18:12 34.10624 -51.39579 36272 ft 445 kts 306°
2026-05-05 18:12 34.14832 -51.44999 36251 ft 445 kts 306°
2026-05-05 18:13 34.19062 -51.50457 36274 ft 444 kts 306°
2026-05-05 18:13 34.23282 -51.55910 36254 ft 444 kts 306°
2026-05-05 18:14 34.27490 -51.61356 36249 ft 442 kts 306°
2026-05-05 18:14 34.31683 -51.66792 36274 ft 441 kts 306°
2026-05-05 18:15 34.35847 -51.72190 36297 ft 443 kts 306°
2026-05-05 18:15 34.40057 -51.77665 36251 ft 445 kts 306°
2026-05-05 18:16 34.44281 -51.83177 36269 ft 447 kts 306°
2026-05-05 18:16 34.48490 -51.88672 36269 ft 443 kts 306°
2026-05-05 18:17 34.52665 -51.94124 36287 ft 440 kts 306°
2026-05-05 18:17 34.56817 -51.99556 36273 ft 438 kts 305°
2026-05-05 18:18 34.60956 -52.04983 36283 ft 438 kts 305°
2026-05-05 18:18 34.65097 -52.10424 36283 ft 439 kts 305°
2026-05-05 18:19 34.69235 -52.15868 36282 ft 442 kts 305°
2026-05-05 18:19 34.73367 -52.21313 36290 ft 445 kts 305°
2026-05-05 18:20 34.77586 -52.26880 36274 ft 448 kts 305°
2026-05-05 18:20 34.81795 -52.32439 36282 ft 449 kts 305°
2026-05-05 18:21 34.86029 -52.38041 36284 ft 450 kts 305°
2026-05-05 18:21 34.90273 -52.43666 36304 ft 451 kts 305°
2026-05-05 18:22 34.94489 -52.49265 36295 ft 452 kts 305°
2026-05-05 18:22 34.98738 -52.54915 36297 ft 453 kts 304°
2026-05-05 18:23 35.03003 -52.60598 36293 ft 454 kts 304°
2026-05-05 18:23 35.07268 -52.66290 36293 ft 454 kts 304°
2026-05-05 18:24 35.11521 -52.71974 36277 ft 454 kts 304°
2026-05-05 18:24 35.15064 -52.76717 36300 ft 454 kts 304°
2026-05-05 18:25 35.20012 -52.83351 36288 ft 454 kts 303°
2026-05-05 18:25 35.24265 -52.89065 36288 ft 453 kts 303°
2026-05-05 18:26 35.27789 -52.93806 36286 ft 453 kts 303°
2026-05-05 18:26 35.32029 -52.99520 36296 ft 452 kts 303°
2026-05-05 18:27 35.36241 -53.05204 36294 ft 451 kts 303°
2026-05-05 18:27 35.40416 -53.10849 36287 ft 449 kts 303°
2026-05-05 18:28 35.46699 -53.19362 36287 ft 447 kts 303°
2026-05-05 18:28 35.50870 -53.25026 36287 ft 446 kts 303°
2026-05-05 18:29 35.55028 -53.30681 36295 ft 446 kts 302°
2026-05-05 18:29 35.59184 -53.36344 36295 ft 445 kts 302°
2026-05-05 18:30 35.63334 -53.42007 36293 ft 445 kts 302°
2026-05-05 18:30 35.67473 -53.47665 36324 ft 445 kts 302°
2026-05-05 18:31 35.71583 -53.53290 36298 ft 443 kts 302°
2026-05-05 18:31 35.75698 -53.58932 36294 ft 441 kts 302°
2026-05-05 18:32 35.79767 -53.64522 36293 ft 439 kts 302°
2026-05-05 18:32 35.83843 -53.70130 36296 ft 438 kts 302°
2026-05-05 18:33 35.87875 -53.75690 36315 ft 437 kts 301°
2026-05-05 18:33 35.91928 -53.81287 36304 ft 437 kts 301°
2026-05-05 18:34 35.95982 -53.86895 36300 ft 437 kts 301°
2026-05-05 18:34 36.00035 -53.92510 36302 ft 437 kts 301°
2026-05-05 18:35 36.04083 -53.98127 36302 ft 438 kts 301°
2026-05-05 18:35 36.08109 -54.03723 36315 ft 439 kts 301°
2026-05-05 18:36 36.12164 -54.09369 36301 ft 438 kts 301°
2026-05-05 18:36 36.16215 -54.15016 36305 ft 438 kts 301°
2026-05-05 18:37 36.20251 -54.20654 36308 ft 437 kts 301°
2026-05-05 18:37 36.24281 -54.26292 36321 ft 437 kts 301°
2026-05-05 18:38 36.28311 -54.31941 36306 ft 437 kts 301°
2026-05-05 18:38 36.32331 -54.37586 36309 ft 436 kts 301°
2026-05-05 18:39 36.36335 -54.43216 36307 ft 436 kts 301°
2026-05-05 18:39 36.40343 -54.48863 36313 ft 435 kts 300°
2026-05-05 18:40 36.44344 -54.54509 36312 ft 435 kts 300°
2026-05-05 18:40 36.48342 -54.60160 36317 ft 435 kts 300°
2026-05-05 18:41 36.52315 -54.65785 36312 ft 434 kts 300°
2026-05-05 18:41 36.56292 -54.71425 36312 ft 433 kts 300°
2026-05-05 18:42 36.60265 -54.77070 36334 ft 433 kts 300°
2026-05-05 18:42 36.64226 -54.82708 36308 ft 432 kts 300°
2026-05-05 18:43 36.68154 -54.88308 36324 ft 432 kts 300°
2026-05-05 18:43 36.72086 -54.93923 36326 ft 432 kts 300°
2026-05-05 18:44 36.76035 -54.99573 36323 ft 431 kts 300°
2026-05-05 18:44 36.79980 -55.05227 36325 ft 432 kts 300°
2026-05-05 18:45 36.83925 -55.10889 36346 ft 432 kts 300°
2026-05-05 18:45 36.87853 -55.16537 36323 ft 433 kts 300°
2026-05-05 18:46 36.91810 -55.22235 36322 ft 433 kts 300°
2026-05-05 18:46 36.95754 -55.27924 36344 ft 433 kts 300°
2026-05-05 18:47 36.99705 -55.33635 36326 ft 434 kts 300°
2026-05-05 18:47 37.03655 -55.39354 36320 ft 434 kts 300°
2026-05-05 18:48 37.07602 -55.45077 36321 ft 434 kts 299°
2026-05-05 18:48 37.11523 -55.50774 36321 ft 435 kts 299°
2026-05-05 18:49 37.15471 -55.56520 36321 ft 435 kts 299°
2026-05-05 18:49 37.19425 -55.62283 36320 ft 436 kts 299°
2026-05-05 18:50 37.23380 -55.68060 36345 ft 437 kts 300°
2026-05-05 18:50 37.27344 -55.73861 36326 ft 438 kts 300°
2026-05-05 18:51 37.31311 -55.79674 36334 ft 439 kts 300°
2026-05-05 18:51 37.35291 -55.85516 36334 ft 439 kts 300°
2026-05-05 18:52 37.39265 -55.91360 36317 ft 440 kts 300°
2026-05-05 18:52 37.43210 -55.97173 36314 ft 440 kts 299°
2026-05-05 18:53 37.47181 -56.03033 36317 ft 440 kts 299°
2026-05-05 18:53 37.51150 -56.08901 36321 ft 440 kts 299°
2026-05-05 18:54 37.55097 -56.14748 36333 ft 440 kts 299°
2026-05-05 18:54 37.59056 -56.20622 36314 ft 440 kts 299°
2026-05-05 18:55 37.63012 -56.26504 36315 ft 440 kts 299°
2026-05-05 18:55 37.66969 -56.32398 36332 ft 440 kts 299°
2026-05-05 18:56 37.70921 -56.38295 36326 ft 440 kts 299°
2026-05-05 18:56 37.74850 -56.44167 36324 ft 440 kts 299°
2026-05-05 18:57 37.78795 -56.50073 36324 ft 439 kts 299°
2026-05-05 18:57 37.82740 -56.55992 36321 ft 439 kts 299°
2026-05-05 18:58 37.86679 -56.61911 36327 ft 439 kts 299°
2026-05-05 18:58 37.90585 -56.67793 36317 ft 439 kts 299°
2026-05-05 18:59 37.94509 -56.73711 36321 ft 438 kts 299°
2026-05-05 18:59 37.98395 -56.79583 36336 ft 438 kts 299°
2026-05-05 19:00 38.02308 -56.85504 36352 ft 437 kts 299°
2026-05-05 19:00 38.06202 -56.91408 36332 ft 435 kts 298°
2026-05-05 19:01 38.10073 -56.97288 36319 ft 433 kts 298°
2026-05-05 19:01 38.13925 -57.03152 36322 ft 432 kts 298°
2026-05-05 19:02 38.17742 -57.08975 36325 ft 431 kts 298°
2026-05-05 19:02 38.21560 -57.14809 36331 ft 431 kts 298°
2026-05-05 19:03 38.25398 -57.20686 36326 ft 432 kts 298°
2026-05-05 19:03 38.29243 -57.26583 36327 ft 433 kts 298°
2026-05-05 19:04 38.33095 -57.32499 36330 ft 434 kts 298°
2026-05-05 19:04 38.36940 -57.38417 36356 ft 435 kts 298°
2026-05-05 19:05 38.40806 -57.44376 36334 ft 436 kts 298°
2026-05-05 19:05 38.44667 -57.50337 36327 ft 436 kts 298°
2026-05-05 19:06 38.48524 -57.56303 36325 ft 435 kts 298°
2026-05-05 19:06 38.52342 -57.62221 36325 ft 434 kts 298°
2026-05-05 19:07 38.55533 -57.67177 36340 ft 434 kts 298°
2026-05-05 19:07 38.60021 -57.74159 36324 ft 433 kts 298°
2026-05-05 19:08 38.63815 -57.80073 36322 ft 432 kts 298°
2026-05-05 19:08 38.67624 -57.86021 36323 ft 432 kts 298°
2026-05-05 19:09 38.71428 -57.91975 36323 ft 432 kts 298°
2026-05-05 19:09 38.75231 -57.97938 36348 ft 432 kts 298°
2026-05-05 19:10 38.79040 -58.03920 36330 ft 432 kts 298°
2026-05-05 19:10 38.82844 -58.09906 36321 ft 433 kts 298°
2026-05-05 19:11 38.86642 -58.15893 36321 ft 433 kts 298°
2026-05-05 19:11 38.90381 -58.21799 36335 ft 433 kts 298°
2026-05-05 19:12 38.94182 -58.27815 36320 ft 434 kts 298°
2026-05-05 19:12 38.97343 -58.32824 36314 ft 434 kts 298°
2026-05-05 19:13 39.01149 -58.38867 36317 ft 435 kts 298°
2026-05-05 19:13 39.04958 -58.44926 36316 ft 435 kts 298°
2026-05-05 19:14 39.08765 -58.50994 36324 ft 436 kts 298°
2026-05-05 19:14 39.12578 -58.57083 36316 ft 437 kts 298°
2026-05-05 19:15 39.16390 -58.63183 36327 ft 437 kts 298°
2026-05-05 19:15 39.20200 -58.69287 36320 ft 436 kts 298°
2026-05-05 19:16 39.23978 -58.75353 36311 ft 436 kts 298°
2026-05-05 19:16 39.27763 -58.81444 36313 ft 435 kts 298°
2026-05-05 19:17 39.31543 -58.87539 36315 ft 434 kts 298°
2026-05-05 19:17 39.35311 -58.93625 36315 ft 434 kts 298°
2026-05-05 19:18 39.39079 -58.99724 36310 ft 433 kts 298°
2026-05-05 19:18 39.42836 -59.05818 36320 ft 434 kts 299°
2026-05-05 19:19 39.46598 -59.11932 36314 ft 435 kts 299°
2026-05-05 19:19 39.50341 -59.18025 36331 ft 435 kts 299°
2026-05-05 19:20 39.54112 -59.24175 36319 ft 436 kts 299°
2026-05-05 19:20 39.57885 -59.30341 36315 ft 437 kts 299°
2026-05-05 19:21 39.61663 -59.36528 36308 ft 438 kts 300°
2026-05-05 19:21 39.65451 -59.42743 36307 ft 440 kts 300°
2026-05-05 19:22 39.69249 -59.48987 36302 ft 441 kts 300°
2026-05-05 19:22 39.73053 -59.55251 36303 ft 442 kts 300°
2026-05-05 19:23 39.76857 -59.61529 36317 ft 442 kts 300°
2026-05-05 19:23 39.80668 -59.67833 36305 ft 444 kts 300°
2026-05-05 19:24 39.84484 -59.74154 36293 ft 445 kts 300°
2026-05-05 19:24 39.88276 -59.80450 36312 ft 445 kts 301°
2026-05-05 19:25 39.92103 -59.86818 36294 ft 446 kts 301°
2026-05-05 19:25 39.95931 -59.93201 36299 ft 448 kts 302°
2026-05-05 19:26 39.99274 -59.99944 36292 ft 439 kts 290°
2026-05-05 19:26 40.01476 -60.07311 36289 ft 433 kts 280°
2026-05-05 19:27 40.02920 -60.14881 36291 ft 433 kts 279°
2026-05-05 19:27 40.04339 -60.22535 36283 ft 434 kts 279°
2026-05-05 19:28 40.05777 -60.30212 36289 ft 436 kts 279°
2026-05-05 19:28 40.07230 -60.37912 36286 ft 437 kts 279°
2026-05-05 19:29 40.08688 -60.45638 36283 ft 438 kts 279°
2026-05-05 19:29 40.10143 -60.53376 36283 ft 440 kts 280°
2026-05-05 19:30 40.11600 -60.61153 36283 ft 441 kts 280°
2026-05-05 19:30 40.13053 -60.68941 36283 ft 441 kts 280°
2026-05-05 19:31 40.14503 -60.76731 36284 ft 441 kts 279°
2026-05-05 19:31 40.15934 -60.84475 36277 ft 441 kts 279°
2026-05-05 19:32 40.17371 -60.92276 36277 ft 441 kts 279°
2026-05-05 19:32 40.18804 -61.00085 36274 ft 441 kts 279°
2026-05-05 19:33 40.20230 -61.07890 36285 ft 441 kts 280°
2026-05-05 19:33 40.21647 -61.15674 36275 ft 442 kts 280°
2026-05-05 19:34 40.23068 -61.23515 36275 ft 443 kts 280°
2026-05-05 19:35 40.25180 -61.35225 36277 ft 444 kts 280°
2026-05-05 19:35 40.26596 -61.43120 36271 ft 446 kts 280°
2026-05-05 19:36 40.28011 -61.51039 36265 ft 447 kts 280°
2026-05-05 19:36 40.29424 -61.58982 36264 ft 448 kts 280°
2026-05-05 19:37 40.30835 -61.66950 36264 ft 449 kts 280°
2026-05-05 19:37 40.32242 -61.74926 36261 ft 449 kts 280°
2026-05-05 19:38 40.33632 -61.82843 36258 ft 449 kts 279°
2026-05-05 19:38 40.35027 -61.90819 36258 ft 449 kts 279°
2026-05-05 19:39 40.36408 -61.98755 36253 ft 449 kts 280°
2026-05-05 19:39 40.37793 -62.06744 36257 ft 449 kts 279°
2026-05-05 19:40 40.39173 -62.14743 36256 ft 450 kts 279°
2026-05-05 19:40 40.40549 -62.22748 36268 ft 450 kts 279°
2026-05-05 19:41 40.41920 -62.30765 36251 ft 451 kts 280°
2026-05-05 19:41 40.43289 -62.38805 36252 ft 451 kts 280°
2026-05-05 19:42 40.44654 -62.46859 36248 ft 452 kts 279°
2026-05-05 19:42 40.46014 -62.54920 36254 ft 453 kts 280°
2026-05-05 19:43 40.47365 -62.62962 36245 ft 454 kts 279°
2026-05-05 19:43 40.48719 -62.71056 36244 ft 454 kts 279°
2026-05-05 19:44 40.50070 -62.79170 36237 ft 455 kts 279°
2026-05-05 19:44 40.51418 -62.87307 36225 ft 455 kts 279°
2026-05-05 19:45 40.52761 -62.95450 36240 ft 456 kts 279°
2026-05-05 19:45 40.54096 -63.03577 36233 ft 456 kts 279°
2026-05-05 19:46 40.55429 -63.11736 36234 ft 456 kts 279°
2026-05-05 19:46 40.56757 -63.19901 36231 ft 457 kts 279°
2026-05-05 19:47 40.58080 -63.28076 36224 ft 457 kts 279°
2026-05-05 19:47 40.59382 -63.36155 36220 ft 457 kts 279°
2026-05-05 19:48 40.60692 -63.44327 36239 ft 457 kts 279°
2026-05-05 19:48 40.61999 -63.52521 36217 ft 458 kts 279°
2026-05-05 19:49 40.63302 -63.60722 36224 ft 458 kts 279°
2026-05-05 19:49 40.64601 -63.68942 36222 ft 458 kts 279°
2026-05-05 19:50 40.65893 -63.77162 36233 ft 459 kts 279°
2026-05-05 19:50 40.67182 -63.85394 36218 ft 459 kts 279°
2026-05-05 19:51 40.68465 -63.93637 36216 ft 459 kts 279°
2026-05-05 19:51 40.69742 -64.01879 36223 ft 459 kts 279°
2026-05-05 19:52 40.71014 -64.10125 36215 ft 459 kts 279°
2026-05-05 19:52 40.72272 -64.18327 36211 ft 459 kts 279°
2026-05-05 19:53 40.73524 -64.26528 36208 ft 459 kts 279°
2026-05-05 19:53 40.74778 -64.34788 36209 ft 459 kts 279°
2026-05-05 19:54 40.76027 -64.43049 36206 ft 460 kts 279°
2026-05-05 19:54 40.77272 -64.51338 36438 ft 462 kts 279°
2026-05-05 19:54 40.77893 -64.55481 36864 ft 459 kts 279°
2026-05-05 19:55 40.78510 -64.59605 37344 ft 455 kts 279°
2026-05-05 19:55 40.79119 -64.63684 37822 ft 451 kts 279°
2026-05-05 19:55 40.79713 -64.67681 38198 ft 449 kts 278°
2026-05-05 19:56 40.80917 -64.75821 38199 ft 452 kts 278°
2026-05-05 19:56 40.82114 -64.83948 38192 ft 449 kts 278°
2026-05-05 19:57 40.83298 -64.92030 38192 ft 447 kts 278°
2026-05-05 19:57 40.84473 -65.00087 38201 ft 446 kts 278°
2026-05-05 19:58 40.85639 -65.08131 38188 ft 446 kts 278°
2026-05-05 19:58 40.86793 -65.16128 38187 ft 446 kts 278°
2026-05-05 19:59 40.87951 -65.24196 38167 ft 447 kts 278°
2026-05-05 19:59 40.89105 -65.32280 38196 ft 448 kts 278°
2026-05-05 20:00 40.90258 -65.40396 38179 ft 450 kts 278°
2026-05-05 20:00 40.91409 -65.48537 38178 ft 451 kts 278°
2026-05-05 20:01 40.92557 -65.56707 38173 ft 452 kts 278°
2026-05-05 20:01 40.93702 -65.64892 38172 ft 453 kts 278°
2026-05-05 20:02 40.94650 -65.71711 38168 ft 453 kts 278°
2026-05-05 20:02 40.95971 -65.81256 38163 ft 453 kts 278°
2026-05-05 20:03 40.97099 -65.89456 38157 ft 453 kts 278°
2026-05-05 20:03 40.98039 -65.96325 38161 ft 453 kts 278°
2026-05-05 20:04 40.99148 -66.04471 38151 ft 452 kts 278°
2026-05-05 20:04 41.00260 -66.12681 38143 ft 452 kts 278°
2026-05-05 20:05 41.01360 -66.20852 38141 ft 451 kts 278°
2026-05-05 20:05 41.02454 -66.29026 38145 ft 451 kts 278°
2026-05-05 20:06 41.03540 -66.37178 38137 ft 450 kts 278°
2026-05-05 20:06 41.04621 -66.45346 38133 ft 450 kts 278°
2026-05-05 20:07 41.05690 -66.53462 38134 ft 450 kts 278°
2026-05-05 20:07 41.06760 -66.61640 38129 ft 449 kts 278°
2026-05-05 20:08 41.07823 -66.69808 38124 ft 449 kts 278°
2026-05-05 20:08 41.08865 -66.77859 38120 ft 449 kts 278°
2026-05-05 20:09 41.09915 -66.86015 38119 ft 449 kts 278°
2026-05-05 20:09 41.10960 -66.94176 38121 ft 448 kts 278°
2026-05-05 20:10 41.11898 -67.02340 38107 ft 447 kts 274°
2026-05-05 20:10 41.12450 -67.10555 38110 ft 447 kts 274°
2026-05-05 20:11 41.12967 -67.18717 38097 ft 446 kts 274°
2026-05-05 20:11 41.13493 -67.26926 38106 ft 446 kts 274°
2026-05-05 20:12 41.14025 -67.35146 38082 ft 446 kts 274°
2026-05-05 20:12 41.14553 -67.43353 38096 ft 446 kts 274°
2026-05-05 20:13 41.15073 -67.51520 38089 ft 447 kts 274°
2026-05-05 20:13 41.15590 -67.59736 38091 ft 447 kts 274°
2026-05-05 20:14 41.16101 -67.67966 38076 ft 447 kts 274°
2026-05-05 20:14 41.16607 -67.76198 38076 ft 447 kts 273°
2026-05-05 20:15 41.17108 -67.84440 38071 ft 448 kts 273°
2026-05-05 20:15 41.17602 -67.92673 38079 ft 448 kts 273°
2026-05-05 20:16 41.18090 -68.00910 38071 ft 448 kts 273°
2026-05-05 20:16 41.18569 -68.09099 38067 ft 448 kts 273°
2026-05-05 20:17 41.19046 -68.17339 38068 ft 448 kts 273°
2026-05-05 20:17 41.19517 -68.25588 38062 ft 448 kts 273°
2026-05-05 20:18 41.19982 -68.33836 38053 ft 447 kts 273°
2026-05-05 20:18 41.20441 -68.42068 38052 ft 447 kts 273°
2026-05-05 20:19 41.20893 -68.50302 38055 ft 446 kts 273°
2026-05-05 20:19 41.21339 -68.58519 38054 ft 446 kts 272°
2026-05-05 20:20 41.21776 -68.66686 38046 ft 445 kts 272°
2026-05-05 20:20 41.22209 -68.74886 38042 ft 445 kts 272°
2026-05-05 20:21 41.22636 -68.83088 38039 ft 445 kts 272°
2026-05-05 20:21 41.23057 -68.91290 38038 ft 445 kts 272°
2026-05-05 20:22 41.23473 -68.99508 38024 ft 446 kts 272°
2026-05-05 20:22 41.23885 -69.07746 38033 ft 446 kts 272°
2026-05-05 20:23 41.24288 -69.15938 38034 ft 447 kts 272°
2026-05-05 20:23 41.24689 -69.24197 38030 ft 447 kts 272°
2026-05-05 20:24 41.25083 -69.32445 38029 ft 447 kts 272°
2026-05-05 20:24 41.25471 -69.40701 38018 ft 447 kts 272°
2026-05-05 20:25 41.25854 -69.48959 38019 ft 447 kts 272°
2026-05-05 20:25 41.26230 -69.57211 38014 ft 447 kts 272°
2026-05-05 20:26 41.26601 -69.65459 38007 ft 447 kts 272°
2026-05-05 20:26 41.26966 -69.73711 38001 ft 447 kts 272°
2026-05-05 20:27 41.27322 -69.81898 37995 ft 446 kts 272°
2026-05-05 20:27 41.27677 -69.90191 37994 ft 446 kts 272°
2026-05-05 20:28 41.27974 -69.98367 37990 ft 445 kts 268°
2026-05-05 20:28 41.27370 -70.06536 37996 ft 443 kts 259°
2026-05-05 20:29 41.25867 -70.14472 37997 ft 443 kts 254°
2026-05-05 20:29 41.24213 -70.22371 37995 ft 443 kts 254°
2026-05-05 20:30 41.22573 -70.30278 37987 ft 443 kts 255°
2026-05-05 20:30 41.20956 -70.38129 37971 ft 443 kts 255°
2026-05-05 20:31 41.19328 -70.46029 37973 ft 443 kts 255°
2026-05-05 20:31 41.17694 -70.53931 37970 ft 443 kts 255°
2026-05-05 20:32 41.16054 -70.61825 37968 ft 443 kts 255°
2026-05-05 20:32 41.14409 -70.69713 37968 ft 443 kts 255°
2026-05-05 20:33 41.12761 -70.77591 37969 ft 443 kts 254°
2026-05-05 20:33 41.11117 -70.85422 37969 ft 443 kts 255°
2026-05-05 20:34 41.09473 -70.93291 37962 ft 442 kts 255°
2026-05-05 20:34 41.07829 -71.01150 37963 ft 442 kts 255°
2026-05-05 20:35 41.06177 -71.08990 37958 ft 441 kts 254°
2026-05-05 20:35 41.04489 -71.16795 37951 ft 440 kts 254°
2026-05-05 20:36 41.02805 -71.24541 37951 ft 440 kts 254°
2026-05-05 20:36 41.01111 -71.32337 37951 ft 440 kts 254°
2026-05-05 20:37 40.99268 -71.40070 37947 ft 440 kts 251°
2026-05-05 20:37 40.97228 -71.47714 37949 ft 441 kts 251°
2026-05-05 20:38 40.95188 -71.55380 37956 ft 441 kts 251°
2026-05-05 20:38 40.93161 -71.63041 37949 ft 442 kts 251°
2026-05-05 20:39 40.91156 -71.70729 37932 ft 442 kts 252°
2026-05-05 20:39 40.89165 -71.78420 37944 ft 442 kts 252°
2026-05-05 20:40 40.87160 -71.86126 37940 ft 443 kts 252°
2026-05-05 20:40 40.85160 -71.93778 37949 ft 443 kts 252°
2026-05-05 20:41 40.83140 -72.01478 37940 ft 443 kts 252°
2026-05-05 20:41 40.81121 -72.09156 37941 ft 442 kts 252°
2026-05-05 20:42 40.79104 -72.16800 37933 ft 440 kts 252°
2026-05-05 20:42 40.77126 -72.24449 37949 ft 440 kts 253°
2026-05-05 20:43 40.75291 -72.32145 37954 ft 440 kts 254°
2026-05-05 20:43 40.73457 -72.39837 37956 ft 440 kts 253°
2026-05-05 20:44 40.71594 -72.47538 37956 ft 440 kts 253°
2026-05-05 20:44 40.69736 -72.55179 37954 ft 441 kts 253°
2026-05-05 20:45 40.66908 -72.66715 37959 ft 441 kts 253°
2026-05-05 20:45 40.65011 -72.74400 37948 ft 441 kts 254°
2026-05-05 20:46 40.63113 -72.82069 37948 ft 441 kts 253°
2026-05-05 20:46 40.61207 -72.89755 37948 ft 441 kts 253°
2026-05-05 20:47 40.59299 -72.97422 37925 ft 441 kts 254°
2026-05-05 20:47 40.57397 -73.05041 37935 ft 440 kts 253°
2026-05-05 20:48 40.55480 -73.12694 37914 ft 440 kts 253°
2026-05-05 20:48 40.53559 -73.20338 37904 ft 440 kts 253°
2026-05-05 20:49 40.51634 -73.27976 37906 ft 440 kts 253°
2026-05-05 20:49 40.49705 -73.35606 37912 ft 440 kts 254°
2026-05-05 20:50 40.48099 -73.41941 37904 ft 439 kts 253°
2026-05-05 20:50 40.46166 -73.49548 37912 ft 439 kts 253°
2026-05-05 20:51 40.44224 -73.57160 37903 ft 439 kts 253°
2026-05-05 20:51 40.42277 -73.64752 37901 ft 439 kts 253°
2026-05-05 20:52 40.40325 -73.72348 37898 ft 438 kts 253°
2026-05-05 20:52 40.38385 -73.79877 37892 ft 438 kts 254°
2026-05-05 20:53 40.36428 -73.87457 37893 ft 438 kts 254°
2026-05-05 20:53 40.34467 -73.95025 37888 ft 438 kts 253°
2026-05-05 20:54 40.32513 -74.02546 37889 ft 438 kts 253°
2026-05-05 20:54 40.30547 -74.10095 37888 ft 438 kts 253°
2026-05-05 20:55 40.28578 -74.17641 37889 ft 438 kts 253°
2026-05-05 20:55 40.26604 -74.25184 37885 ft 438 kts 253°
2026-05-05 20:56 40.24627 -74.32715 37880 ft 437 kts 253°
2026-05-05 20:56 40.22646 -74.40242 37877 ft 437 kts 253°
2026-05-05 20:57 40.20765 -74.47802 37859 ft 433 kts 262°
2026-05-05 20:57 40.20539 -74.51699 37866 ft 429 kts 275°
2026-05-05 20:57 40.21057 -74.55518 37875 ft 425 kts 284°
2026-05-05 20:58 40.22387 -74.63091 37865 ft 428 kts 282°
2026-05-05 20:58 40.23628 -74.70740 37868 ft 431 kts 282°
2026-05-05 20:59 40.24855 -74.78439 37866 ft 433 kts 282°
2026-05-05 20:59 40.26080 -74.86132 37865 ft 435 kts 282°
2026-05-05 21:00 40.27322 -74.93895 37864 ft 436 kts 282°
2026-05-05 21:00 40.28597 -75.01662 37859 ft 436 kts 282°
2026-05-05 21:01 40.29869 -75.09424 37854 ft 436 kts 282°
2026-05-05 21:01 40.31130 -75.17181 37861 ft 435 kts 282°
2026-05-05 21:02 40.32383 -75.24932 37868 ft 434 kts 282°
2026-05-05 21:02 40.33629 -75.32678 37866 ft 434 kts 282°
2026-05-05 21:03 40.34859 -75.40358 37858 ft 433 kts 282°
2026-05-05 21:03 40.36093 -75.48095 37862 ft 432 kts 282°
2026-05-05 21:04 40.37316 -75.55798 37881 ft 430 kts 282°
2026-05-05 21:04 40.37643 -75.59670 37876 ft 429 kts 269°
2026-05-05 21:04 40.37251 -75.63555 37888 ft 431 kts 258°
2026-05-05 21:05 40.36197 -75.67223 37816 ft 429 kts 247°
2026-05-05 21:05 40.34823 -75.70703 37243 ft 429 kts 247°
2026-05-05 21:05 40.33443 -75.74155 36629 ft 427 kts 247°
2026-05-05 21:05 40.32071 -75.77605 35937 ft 427 kts 248°
2026-05-05 21:06 40.30709 -75.81067 35181 ft 428 kts 248°
2026-05-05 21:06 40.29352 -75.84546 34395 ft 429 kts 249°
2026-05-05 21:06 40.27996 -75.88039 33540 ft 431 kts 249°
2026-05-05 21:06 40.26638 -75.91552 32583 ft 433 kts 248°
2026-05-05 21:07 40.25273 -75.95083 31640 ft 436 kts 247°
2026-05-05 21:07 40.23898 -75.98632 30726 ft 439 kts 246°
2026-05-05 21:07 40.22536 -76.02139 30086 ft 436 kts 245°
2026-05-05 21:07 40.21159 -76.05676 29350 ft 435 kts 245°
2026-05-05 21:08 40.19784 -76.09202 28634 ft 432 kts 245°
2026-05-05 21:08 40.18426 -76.12683 27993 ft 427 kts 245°
2026-05-05 21:08 40.17092 -76.16099 27357 ft 424 kts 245°
2026-05-05 21:08 40.15758 -76.19516 26731 ft 420 kts 245°
2026-05-05 21:09 40.14436 -76.22900 26110 ft 417 kts 245°
2026-05-05 21:09 40.13121 -76.26260 25517 ft 414 kts 244°
2026-05-05 21:09 40.11806 -76.29598 24916 ft 411 kts 243°
2026-05-05 21:09 40.10390 -76.32826 24336 ft 409 kts 240°
2026-05-05 21:10 40.08900 -76.35978 23733 ft 407 kts 239°
2026-05-05 21:10 40.07410 -76.39114 23106 ft 405 kts 240°
2026-05-05 21:10 40.05951 -76.42233 22491 ft 401 kts 240°
2026-05-05 21:10 40.04513 -76.45339 21887 ft 397 kts 240°
2026-05-05 21:11 40.03093 -76.48412 21329 ft 393 kts 240°
2026-05-05 21:11 40.01686 -76.51453 20781 ft 389 kts 240°
2026-05-05 21:11 40.00291 -76.54464 20239 ft 386 kts 240°
2026-05-05 21:11 39.98907 -76.57450 19699 ft 383 kts 240°
2026-05-05 21:12 39.97534 -76.60408 19164 ft 380 kts 239°
2026-05-05 21:12 39.96168 -76.63347 18641 ft 378 kts 239°
2026-05-05 21:12 39.94810 -76.66263 18101 ft 376 kts 239°
2026-05-05 21:12 39.93472 -76.69134 17503 ft 374 kts 239°
2026-05-05 21:13 39.92125 -76.72020 16984 ft 370 kts 239°
2026-05-05 21:13 39.90799 -76.74860 16532 ft 365 kts 240°
2026-05-05 21:13 39.89488 -76.77668 16008 ft 362 kts 240°
2026-05-05 21:13 39.88182 -76.80464 15506 ft 360 kts 240°
2026-05-05 21:14 39.86885 -76.83237 14996 ft 358 kts 240°
2026-05-05 21:14 39.85595 -76.85996 14492 ft 356 kts 240°
2026-05-05 21:14 39.84310 -76.88737 14024 ft 354 kts 240°
2026-05-05 21:14 39.83025 -76.91474 13500 ft 353 kts 240°
2026-05-05 21:15 39.81752 -76.94189 12944 ft 351 kts 240°
2026-05-05 21:15 39.80483 -76.96892 12429 ft 349 kts 240°
2026-05-05 21:15 39.79223 -76.99573 11933 ft 346 kts 239°
2026-05-05 21:15 39.77969 -77.02235 11440 ft 344 kts 239°
2026-05-05 21:16 39.76723 -77.04880 10976 ft 342 kts 239°
2026-05-05 21:16 39.75498 -77.07477 10821 ft 330 kts 239°
2026-05-05 21:16 39.74315 -77.09984 10665 ft 320 kts 239°
2026-05-05 21:16 39.73169 -77.12409 10512 ft 310 kts 239°
2026-05-05 21:17 39.72080 -77.14714 10383 ft 287 kts 239°
2026-05-05 21:17 39.71074 -77.16843 10271 ft 269 kts 239°
2026-05-05 21:17 39.70120 -77.18857 10160 ft 261 kts 239°
2026-05-05 21:17 39.69183 -77.20836 10068 ft 252 kts 239°
2026-05-05 21:18 39.68243 -77.22716 9963 ft 243 kts 231°
2026-05-05 21:18 39.67067 -77.24276 9861 ft 243 kts 223°
2026-05-05 21:18 39.65793 -77.25761 9757 ft 249 kts 223°
2026-05-05 21:18 39.64485 -77.27278 9643 ft 253 kts 223°
2026-05-05 21:19 39.63193 -77.28793 9510 ft 253 kts 223°
2026-05-05 21:19 39.61896 -77.30332 9384 ft 252 kts 223°
2026-05-05 21:19 39.60610 -77.31867 9272 ft 250 kts 223°
2026-05-05 21:19 39.59334 -77.33394 9154 ft 249 kts 223°
2026-05-05 21:20 39.58062 -77.34916 9083 ft 248 kts 223°
2026-05-05 21:20 39.56763 -77.36386 9013 ft 249 kts 217°
2026-05-05 21:20 39.55289 -77.37586 9001 ft 252 kts 212°
2026-05-05 21:20 39.53767 -77.38718 8997 ft 253 kts 212°
2026-05-05 21:21 39.52240 -77.39864 8993 ft 253 kts 212°
2026-05-05 21:21 39.50725 -77.41024 8994 ft 253 kts 213°
2026-05-05 21:21 39.49210 -77.42196 8995 ft 253 kts 213°
2026-05-05 21:21 39.47698 -77.43371 8989 ft 253 kts 213°
2026-05-05 21:22 39.46184 -77.44540 8980 ft 251 kts 211°
2026-05-05 21:22 39.44536 -77.45255 8925 ft 257 kts 189°
2026-05-05 21:22 39.42712 -77.45294 8601 ft 264 kts 184°
2026-05-05 21:22 39.40869 -77.45301 8303 ft 263 kts 185°
2026-05-05 21:23 39.39077 -77.45322 8019 ft 259 kts 185°
2026-05-05 21:23 39.37297 -77.45345 7735 ft 253 kts 185°
2026-05-05 21:23 39.35558 -77.45369 7470 ft 248 kts 185°
2026-05-05 21:23 39.33836 -77.45393 7194 ft 248 kts 186°
2026-05-05 21:24 39.32106 -77.45421 6899 ft 250 kts 185°
2026-05-05 21:24 39.30361 -77.45447 6582 ft 252 kts 185°
2026-05-05 21:24 39.28613 -77.45472 6245 ft 250 kts 185°
2026-05-05 21:24 39.26883 -77.45496 5900 ft 246 kts 185°
2026-05-05 21:25 39.25186 -77.45520 5595 ft 241 kts 184°
2026-05-05 21:25 39.23520 -77.45544 5310 ft 240 kts 184°
2026-05-05 21:25 39.21842 -77.45571 5027 ft 242 kts 184°
2026-05-05 21:25 39.20150 -77.45596 4684 ft 242 kts 184°
2026-05-05 21:26 39.18478 -77.45620 4361 ft 239 kts 184°
2026-05-05 21:26 39.16824 -77.45642 4038 ft 236 kts 185°
2026-05-05 21:26 39.15196 -77.45665 3745 ft 232 kts 184°
2026-05-05 21:26 39.13593 -77.45688 3431 ft 228 kts 184°
2026-05-05 21:27 39.12038 -77.45712 3141 ft 216 kts 184°
2026-05-05 21:27 39.10602 -77.45724 2864 ft 197 kts 185°
2026-05-05 21:27 39.09298 -77.45741 2615 ft 177 kts 184°
2026-05-05 21:27 39.08123 -77.45751 2444 ft 167 kts 184°
2026-05-05 21:28 39.06951 -77.45767 2157 ft 170 kts 185°
2026-05-05 21:28 39.05773 -77.45794 2023 ft 169 kts 186°
2026-05-05 21:28 39.04634 -77.45816 1721 ft 156 kts 186°
2026-05-05 21:28 39.03640 -77.45824 1571 ft 130 kts 186°
2026-05-05 21:29 39.02770 -77.45835 1378 ft 122 kts 187°
2026-05-05 21:29 39.01891 -77.45853 1207 ft 130 kts 186°
2026-05-05 21:29 39.00990 -77.45869 1086 ft 129 kts 185°
2026-05-05 21:29 39.00090 -77.45889 919 ft 127 kts 185°
2026-05-05 21:30 38.99243 -77.45901 753 ft 120 kts 187°
2026-05-05 21:30 38.98394 -77.45913 603 ft 127 kts 186°
2026-05-05 21:30 38.97519 -77.45922 401 ft 126 kts 185°
2026-05-05 21:30 38.96657 -77.45928 300 ft 115 kts 187°
2026-05-05 21:31 38.95973 -77.45949 299 ft 75 kts 181°
2026-05-05 21:31 38.95641 -77.45951 304 ft 30 kts 175°
2026-05-05 21:31 38.95444 -77.45872 304 ft 28 kts 153°
2026-05-05 21:31 38.95373 -77.45823 307 ft 10 kts 152°
2026-05-05 21:32 38.95309 -77.45780 304 ft 11 kts 152°
2026-05-05 21:32 38.95236 -77.45732 302 ft 13 kts 156°
2026-05-05 21:32 38.95141 -77.45709 301 ft 10 kts 163°
2026-05-05 21:32 38.95122 -77.45633 302 ft 11 kts 75°
2026-05-05 21:33 38.95197 -77.45598 302 ft 14 kts
2026-05-05 21:33 38.95316 -77.45598 302 ft 20 kts
2026-05-05 21:33 38.95469 -77.45595 305 ft 24 kts
2026-05-05 21:33 38.95647 -77.45592 303 ft 23 kts
2026-05-05 21:34 38.95715 -77.45559 303 ft 9 kts 62°
2026-05-05 21:34 38.95716 -77.45456 300 ft 13 kts 89°
2026-05-05 21:34 38.95717 -77.45422 301 ft 0 kts 89°